Falfurrias, TX

7:22 PM CST on November 13, 2019 (GMT -0600)
Falfurrias

Weather History for KBKS - August, 2019

Change the Weather History Date:

Saturday, August 17, 2019

  Actual Average (KNQI) Record (KNQI)
Temperature  
Mean Temperature 92 °F -  
Max Temperature 105 °F 94 °F 102 °F (1997)
Min Temperature 79 °F 74 °F 68 °F (2004)
Cooling Degree Days 26    
Growing Degree Days 42 (Base 50)    
Moisture  
Dew Point 73 °F    
Average Humidity 60    
Maximum Humidity 88    
Minimum Humidity 26    
Precipitation  
Precipitation 0.00 in - - ()
Sea Level Pressure  
Sea Level Pressure 29.83 in    
Wind  
Wind Speed 8 mph ()    
Max Wind Speed 18 mph    
Max Gust Speed 26 mph    
Visibility 9.5 miles    
Events      
Averages and records for this station are not official NWS values.
T = Trace of Precipitation, MM = Missing Value Source: Averaged Metar Reports

Daily Weather History Graph

Daily Weather History Graph

Search for Another Location

Airport or City:

Astronomy

Aug. 17, 2019 Rise Set
Actual Time 7:04 AM CDT 8:08 PM CDT
Civil Twilight 6:40 AM CDT 8:32 PM CDT
Nautical Twilight 6:11 AM CDT 9:01 PM CDT
Astronomical Twilight 5:41 AM CDT 9:30 PM CDT
Moon 9:45 PM CDT (8/17) 8:48 AM CDT (8/17)
Length of Visible Light 13h 52m
Length of Day
13h 03m
Waning Gibbous, 96% of the Moon is Illuminated
Aug 17
Waning Gibbous
Aug 23
Last Quarter
Aug 30
New
Sep 5
First Quarter
Sep 13
Full

Hourly Weather History & Observations

Time (CDT) Temp. Heat Index Dew Point Humidity Pressure Visibility Wind Dir Wind Speed Gust Speed Precip Events Conditions
12:15 AM 85.1 °F 94.5 °F 76.1 °F 74% 29.89 in 10.0 mi SSE 10.4 mph - N/A   Clear
12:35 AM 85.1 °F 94.5 °F 76.1 °F 74% 29.89 in 10.0 mi SSE 9.2 mph - N/A   Clear
12:55 AM 84.6 °F 93.9 °F 76.1 °F 76% 29.89 in 10.0 mi SE 6.9 mph - N/A   Clear
1:15 AM 84.4 °F 93.9 °F 76.3 °F 77% 29.89 in 10.0 mi SE 9.2 mph - N/A   Clear
1:35 AM 84.0 °F 93.3 °F 76.5 °F 78% 29.89 in 10.0 mi SSE 8.1 mph - N/A   Clear
1:55 AM 83.7 °F 92.7 °F 76.5 °F 79% 29.89 in 10.0 mi SE 5.8 mph - N/A   Clear
2:15 AM 83.3 °F 92.1 °F 76.5 °F 80% 29.89 in 10.0 mi Calm Calm - N/A   Clear
2:35 AM 82.9 °F 91.5 °F 76.5 °F 81% 29.88 in 10.0 mi Calm Calm - N/A   Clear
2:55 AM 82.6 °F 90.8 °F 76.5 °F 82% 29.88 in 10.0 mi SE 4.6 mph - N/A   Clear
3:15 AM 82.4 °F 90.3 °F 76.5 °F 82% 29.88 in 10.0 mi SE 3.5 mph - N/A   Clear
3:35 AM 82.2 °F 90.1 °F 76.5 °F 83% 29.88 in 10.0 mi SE 3.5 mph - N/A   Clear
3:55 AM 82.0 °F 89.9 °F 76.6 °F 84% 29.87 in 10.0 mi SE 5.8 mph - N/A   Scattered Clouds
4:15 AM 81.9 °F 89.5 °F 76.6 °F 84% 29.87 in 10.0 mi SE 4.6 mph - N/A   Clear
4:35 AM 81.5 °F 88.7 °F 76.5 °F 85% 29.87 in 10.0 mi Calm Calm - N/A   Clear
4:55 AM 80.4 °F 86.3 °F 76.1 °F 87% 29.87 in 7.0 mi ESE 3.5 mph - N/A   Clear
5:15 AM 79.9 °F - 76.1 °F 88% 29.86 in 7.0 mi ESE 4.6 mph - N/A   Clear
5:35 AM 79.7 °F - 75.7 °F 88% 29.86 in 7.0 mi ESE 3.5 mph - N/A   Clear
5:55 AM 79.7 °F - 75.9 °F 88% 29.86 in 7.0 mi ESE 4.6 mph - N/A   Clear
6:15 AM 79.9 °F - 76.1 °F 88% 29.86 in 7.0 mi ESE 3.5 mph - N/A   Clear
6:35 AM 79.7 °F - 75.7 °F 88% 29.86 in 7.0 mi ESE 3.5 mph - N/A   Clear
6:55 AM 79.7 °F - 75.7 °F 88% 29.86 in 7.0 mi ESE 4.6 mph - N/A   Clear
7:15 AM 79.9 °F - 76.1 °F 88% 29.86 in 7.0 mi ESE 3.5 mph - N/A   Clear
7:35 AM 79.9 °F - 76.1 °F 88% 29.86 in 5.0 mi ESE 3.5 mph - N/A   Clear
7:55 AM 80.6 °F 86.8 °F 76.3 °F 87% 29.86 in 5.0 mi ESE 4.6 mph - N/A   Clear
8:15 AM 81.9 °F 89.5 °F 76.6 °F 84% 29.87 in 7.0 mi East 4.6 mph - N/A   Clear
8:35 AM 84.2 °F 94.1 °F 77.0 °F 79% 29.87 in 10.0 mi ESE 8.1 mph - N/A   Clear
8:55 AM 85.5 °F 96.3 °F 77.0 °F 76% 29.87 in 10.0 mi SE 6.9 mph - N/A   Clear
9:15 AM 86.9 °F 98.3 °F 77.0 °F 72% 29.87 in 10.0 mi SSE 10.4 mph - N/A   Scattered Clouds
9:35 AM 88.7 °F 100.4 °F 76.3 °F 67% 29.87 in 10.0 mi SSE 15.0 mph 18.4 mph N/A   Scattered Clouds
9:55 AM 90.5 °F 101.5 °F 75.4 °F 61% 29.87 in 10.0 mi SSE 12.7 mph - N/A   Scattered Clouds
10:15 AM 91.9 °F 101.9 °F 74.3 °F 56% 29.88 in 10.0 mi SSE 13.8 mph 19.6 mph N/A   Scattered Clouds
10:35 AM 93.4 °F 103.4 °F 74.1 °F 53% 29.89 in 10.0 mi SSE 16.1 mph 20.7 mph N/A   Scattered Clouds
10:55 AM 93.4 °F 102.8 °F 73.4 °F 52% 29.88 in 10.0 mi SSE 15.0 mph 21.9 mph N/A   Scattered Clouds
11:15 AM 95.2 °F 103.6 °F 72.1 °F 47% 29.88 in 10.0 mi SSE 15.0 mph 21.9 mph N/A   Scattered Clouds
11:35 AM 95.5 °F 103.7 °F 71.6 °F 46% 29.88 in 10.0 mi SSE 17.3 mph 23.0 mph N/A   Clear
11:55 AM 97.5 °F 106.0 °F 71.4 °F 43% 29.88 in 10.0 mi SSE 15.0 mph 20.7 mph N/A   Clear
12:15 PM 97.9 °F 106.1 °F 71.1 °F 42% 29.87 in 10.0 mi South 10.4 mph 19.6 mph N/A   Clear
12:35 PM 99.0 °F 106.2 °F 70.0 °F 39% 29.86 in 10.0 mi South 13.8 mph 21.9 mph N/A   Scattered Clouds
12:55 PM 99.5 °F 106.6 °F 70.0 °F 38% 29.85 in 10.0 mi SSE 15.0 mph 18.4 mph N/A   Scattered Clouds
1:15 PM 100.8 °F 107.0 °F 68.4 °F 35% 29.84 in 10.0 mi SE 12.7 mph 20.7 mph N/A   Scattered Clouds
1:35 PM 100.8 °F 107.0 °F 68.5 °F 35% 29.83 in 10.0 mi SSE 12.7 mph 20.7 mph N/A   Scattered Clouds
1:55 PM 101.5 °F 107.0 °F 67.3 °F 33% 29.82 in 10.0 mi South 10.4 mph 18.4 mph N/A   Scattered Clouds
2:15 PM 101.7 °F 105.9 °F 66.0 °F 31% 29.82 in 10.0 mi SSE 16.1 mph 20.7 mph N/A   Scattered Clouds
2:35 PM 102.9 °F 108.3 °F 67.1 °F 31% 29.80 in 10.0 mi SSE 17.3 mph 25.3 mph N/A   Scattered Clouds
2:55 PM 103.1 °F 108.7 °F 67.1 °F 31% 29.79 in 10.0 mi South 10.4 mph 20.7 mph N/A   Scattered Clouds
3:15 PM 104.9 °F 109.8 °F 66.2 °F 28% 29.79 in 10.0 mi SSE 15.0 mph 23.0 mph N/A   Scattered Clouds
3:35 PM 104.5 °F 109.1 °F 64.9 °F 28% 29.77 in 10.0 mi SSE 13.8 mph 18.4 mph N/A   Scattered Clouds
3:55 PM 104.5 °F 108.3 °F 64.6 °F 27% 29.77 in 10.0 mi SE 11.5 mph 18.4 mph N/A   Scattered Clouds
4:15 PM 104.2 °F 107.7 °F 63.9 °F 27% 29.76 in 10.0 mi SE 6.9 mph 21.9 mph N/A   Clear
4:35 PM 104.9 °F 108.2 °F 63.7 °F 26% 29.75 in 10.0 mi SE 9.2 mph - N/A   Clear
4:55 PM 104.5 °F 110.7 °F 67.5 °F 30% 29.75 in 10.0 mi SSE 9.2 mph 23.0 mph N/A   Clear
5:15 PM 102.4 °F 109.6 °F 68.9 °F 34% 29.74 in 10.0 mi SE 17.3 mph 20.7 mph N/A   Scattered Clouds
5:35 PM 102.0 °F 109.6 °F 69.4 °F 35% 29.74 in 10.0 mi SE 17.3 mph 21.9 mph N/A   Scattered Clouds
5:55 PM 101.8 °F 110.1 °F 70.5 °F 36% 29.74 in 10.0 mi SE 18.4 mph 24.2 mph N/A   Clear
6:15 PM 100.9 °F 109.7 °F 70.7 °F 38% 29.75 in 10.0 mi SE 13.8 mph 19.6 mph N/A   Clear
6:35 PM 99.9 °F 108.2 °F 70.7 °F 39% 29.75 in 10.0 mi SE 18.4 mph 25.3 mph N/A   Scattered Clouds
6:55 PM 99.0 °F 107.7 °F 71.2 °F 41% 29.75 in 10.0 mi SE 17.3 mph 24.2 mph N/A   Scattered Clouds
7:15 PM 97.0 °F 105.5 °F 71.6 °F 44% 29.75 in 10.0 mi SE 15.0 mph 26.5 mph N/A   Clear
7:35 PM 95.5 °F 103.7 °F 71.6 °F 46% 29.75 in 10.0 mi SE 16.1 mph 23.0 mph N/A   Clear
7:55 PM 94.1 °F 101.8 °F 71.4 °F 48% 29.75 in 10.0 mi SE 15.0 mph 20.7 mph N/A   Clear
8:15 PM 92.8 °F 99.7 °F 71.1 °F 49% 29.76 in 10.0 mi SE 12.7 mph 20.7 mph N/A   Clear
8:35 PM 91.8 °F 98.1 °F 70.7 °F 50% 29.76 in 10.0 mi SE 11.5 mph 19.6 mph N/A   Clear
8:55 PM 90.9 °F 96.2 °F 70.2 °F 50% 29.78 in 10.0 mi SE 10.4 mph - N/A   Clear
9:15 PM 90.0 °F 95.0 °F 69.8 °F 51% 29.78 in 10.0 mi ESE 11.5 mph 16.1 mph N/A   Clear
9:35 PM 88.9 °F 94.2 °F 70.5 °F 54% 29.80 in 10.0 mi SE 11.5 mph 17.3 mph N/A   Clear
9:55 PM 88.0 °F 95.1 °F 72.7 °F 60% 29.81 in 10.0 mi SE 9.2 mph 20.7 mph N/A   Clear
10:15 PM 86.9 °F 94.5 °F 73.6 °F 64% 29.82 in 10.0 mi ESE 11.5 mph 18.4 mph N/A   Clear
10:35 PM 86.4 °F 95.1 °F 74.5 °F 68% 29.83 in 10.0 mi SE 11.5 mph 16.1 mph N/A   Clear
10:55 PM 85.8 °F 94.6 °F 74.8 °F 70% 29.85 in 10.0 mi SE 12.7 mph 19.6 mph N/A   Clear
11:15 PM 85.6 °F 94.6 °F 75.2 °F 71% 29.85 in 10.0 mi SE 13.8 mph 23.0 mph N/A   Clear
11:35 PM 85.3 °F 94.6 °F 75.9 °F 73% 29.87 in 10.0 mi SE 11.5 mph 17.3 mph N/A   Clear
11:55 PM 85.1 °F 94.5 °F 76.1 °F 74% 29.87 in 10.0 mi SE 9.2 mph 16.1 mph N/A   Clear